RH
16 14 15 13 14 14 14 14 13 14 17 20 19 21 26 35 48 58 43 32 20 17 15 13 13 14 15 20 21 20 15 8 4 3 2 2 1 1 4 14 28 56 66 64 63
24 19 20 18 16 17 18 18 17 17 18 23 23 22 28 39 54 66 45 31 24 19 15 15 15 16 19 23 20 16 10 5 3 2 2 2 1 3 14 40 49 56 73 78 81
62 30 21 29 25 23 23 24 24 22 21 26 29 27 32 40 44 58 55 39 26 19 17 17 17 19 25 22 19 14 6 5 4 2 2 1 2 9 33 45 48 57 63 56 66
98 86 49 42 37 33 31 31 32 32 29 30 33 34 39 42 53 63 58 41 29 23 19 18 20 26 25 21 16 10 5 5 4 2 2 2 4 18 38 45 59 64 66 55 11
83 90 95 89 59 44 43 39 38 38 38 38 40 40 46 53 65 69 60 45 34 22 21 20 24 29 24 19 14 8 6 6 3 2 2 2 6 32 43 58 62 91 74 64 22
83 99 95 96 90 72 52 48 49 47 46 45 46 53 50 72 86 92 62 46 37 24 23 24 30 27 21 17 11 7 7 5 3 2 2 2 6 38 43 48 76 92 76 68 71
73 89 92 99 100 94 77 68 60 58 54 55 56 61 65 90 95 88 53 40 35 26 24 27 33 26 21 15 10 8 7 5 3 2 2 2 12 38 37 53 90 45 81 64 88
61 84 64 82 95 96 92 88 88 70 75 62 64 69 86 90 96 88 46 35 31 28 27 34 32 25 18 15 10 9 7 4 2 2 2 3 11 39 36 54 75 89 74 77 70
7 9 28 56 79 96 97 97 95 94 93 91 75 78 95 97 95 86 58 47 30 28 31 38 31 24 18 14 10 10 6 4 2 2 2 3 17 44 36 42 70 87 90 69 76
9 8 10 60 88 96 98 99 97 96 95 95 94 96 95 99 96 90 70 56 32 32 41 39 30 25 20 14 12 9 5 4 2 2 2 4 38 58 33 43 69 63 93 84 88
12 10 8 12 57 91 97 98 97 96 95 96 97 95 97 98 97 94 64 45 40 45 43 39 31 26 20 15 12 8 5 3 3 2 2 7 32 55 41 45 51 68 95 97 81
15 12 10 46 66 85 97 94 95 96 97 97 97 96 98 96 97 90 54 49 53 49 43 37 32 28 20 16 13 6 5 3 3 2 2 6 34 54 51 54 71 83 94 96 98
18 15 11 54 78 86 97 95 95 97 95 98 96 96 92 97 97 84 54 63 56 47 43 38 35 29 22 18 11 6 5 3 2 2 3 4 30 41 60 77 100 100 100 100 86
21 16 16 69 81 88 97 96 96 96 95 97 96 95 96 95 98 86 64 78 68 50 45 39 37 30 24 20 12 6 5 4 2 2 2 3 13 29 56 72 100 100 100 98 87
24 18 27 84 88 93 100 96 97 96 93 93 91 97 97 98 96 81 78 84 73 54 50 44 40 32 26 21 13 7 5 4 2 2 2 2 8 30 36 67 84 98 92 86 80
24 17 35 87 98 99 100 96 97 98 95 95 96 96 97 98 98 92 91 94 81 67 55 47 44 35 30 24 14 7 5 4 2 2 2 2 6 22 28 28 96 100 86 94 100
26 21 20 40 88 97 100 100 95 95 97 96 97 97 98 98 98 98 96 97 89 73 65 56 48 38 33 24 14 8 5 5 3 2 3 2 5 19 36 45 68 81 89 88 100
30 36 28 44 88 95 98 98 93 96 97 96 96 96 87 86 96 90 99 98 95 92 86 67 54 43 36 27 15 10 6 4 3 2 2 2 3 6 28 32 68 76 85 88 99
28 19 24 59 91 99 96 95 96 97 97 97 97 97 96 88 90 90 88 98 97 95 95 77 60 48 37 28 16 11 7 4 3 2 2 2 3 4 23 30 62 86 88 92 100
12 26 34 78 83 99 92 99 95 98 97 97 96 95 99 99 93 92 94 95 99 96 97 81 65 51 39 28 18 12 8 4 3 3 2 2 2 2 8 37 47 77 86 84 100
56 20 47 74 86 89 89 96 98 100 98 96 96 97 99 97 97 96 93 88 95 97 97 95 72 53 41 29 19 12 8 5 3 3 3 2 2 2 3 26 31 69 80 77 100
28 10 73 99 85 90 96 98 96 98 99 97 96 95 96 96 98 96 92 86 99 100 99 92 71 58 43 29 19 12 8 5 3 3 3 2 2 2 3 14 24 57 66 78 100
38 14 74 100 61 96 100 99 97 98 98 96 94 96 95 99 98 95 96 100 100 99 98 88 72 63 44 29 19 13 9 5 4 4 4 3 2 2 2 6 24 45 56 73 90
70 98 59 77 93 100 96 98 97 98 98 98 96 100 96 97 97 96 97 98 98 98 97 96 89 67 44 27 20 14 10 7 5 5 4 3 3 2 2 3 18 29 58 61 77
96 69 36 53 100 100 99 97 98 97 98 98 98 95 96 96 97 98 98 96 96 98 98 98 96 69 43 28 22 15 11 8 6 5 4 3 2 2 2 3 10 24 53 54 74
98 55 73 100 99 98 99 100 98 98 98 98 97 97 96 98 97 96 95 95 95 96 97 98 96 70 41 31 24 17 13 9 7 5 4 3 2 2 2 3 4 22 42 58 53
100 88 100 100 87 96 96 96 98 98 98 98 97 97 97 98 98 93 93 95 97 97 98 99 96 67 42 35 27 21 16 10 8 6 5 4 2 2 3 3 4 18 30 59 54
Wind_Speed
42 40 38 37 36 34 32 31 30 28 26 24 24 24 26 25 28 27 23 21 20 21 20 22 25 27 30 33 35 38 42 45 50 57 61 68 73 74 67 54 50 55 54 53 48
44 45 43 42 40 38 35 32 31 30 28 26 25 24 26 24 26 27 24 21 22 22 23 24 26 28 32 33 35 39 43 47 53 58 64 74 71 63 47 43 47 50 50 49 49
47 46 45 44 42 40 38 35 31 30 29 28 26 25 26 26 26 25 24 22 22 22 23 24 25 30 32 31 36 40 43 49 55 61 68 73 67 51 37 40 46 49 41 43 36
42 49 49 45 44 41 39 36 33 30 29 28 27 26 26 26 26 25 23 22 22 22 21 24 27 30 30 32 36 40 45 52 57 65 69 70 59 39 36 40 44 48 46 45 36
47 44 48 51 46 44 40 36 34 31 30 28 27 27 26 25 31 28 23 23 23 20 22 24 27 28 29 32 36 40 44 53 58 64 68 69 52 38 36 38 40 42 42 38 31
40 40 42 45 54 45 42 39 35 32 30 30 28 26 26 31 34 30 25 24 22 21 22 24 26 26 27 31 37 40 47 53 58 62 69 69 50 37 37 37 37 43 36 32 32
37 38 38 41 49 51 47 40 36 33 31 30 28 27 24 35 29 24 24 22 21 21 22 25 25 25 28 33 36 41 46 53 60 64 68 69 47 32 35 38 36 37 34 32 38
34 41 44 42 44 52 55 48 45 35 35 31 30 27 36 32 27 23 22 20 19 21 23 26 23 25 27 31 36 42 48 54 61 63 67 62 46 29 34 35 36 36 35 35 31
36 38 40 43 44 44 47 55 52 44 36 33 31 36 34 28 24 21 21 20 21 22 24 23 23 23 28 32 37 43 48 54 60 61 65 61 39 29 31 34 35 41 32 33 27
38 39 37 36 40 39 43 47 51 46 42 46 37 39 29 27 24 21 23 21 22 23 24 22 23 24 27 30 35 42 47 54 61 64 64 57 34 31 30 35 38 41 35 29 27
38 41 41 38 34 34 38 37 46 41 43 39 37 28 26 25 21 19 21 19 20 21 20 20 22 22 25 29 35 41 48 54 60 63 62 48 28 29 30 36 36 45 34 27 24
39 37 40 35 35 33 33 32 32 38 37 30 32 28 21 23 19 19 18 18 20 19 20 20 20 22 25 30 36 40 47 51 58 63 63 52 27 26 28 34 40 42 32 24 22
37 35 38 34 30 27 24 28 25 31 36 30 30 23 18 21 20 20 18 19 19 19 20 20 20 22 25 29 35 38 44 49 56 60 61 57 28 21 26 29 34 31 28 23 16
34 34 33 32 27 26 24 24 22 23 31 29 23 22 19 18 21 21 21 20 20 19 20 20 20 21 24 29 34 38 43 49 54 58 61 61 31 17 21 24 29 25 26 14 11
31 31 29 29 23 23 21 25 21 21 26 24 25 22 19 17 18 21 24 21 20 19 20 20 21 21 24 28 31 36 41 48 52 57 60 59 35 21 18 19 24 22 21 12 9
30 28 27 24 21 22 19 20 20 20 24 23 23 20 23 24 23 23 25 23 20 19 21 21 21 20 23 27 30 35 40 45 51 56 59 60 42 24 15 19 20 21 17 8 7
31 27 24 23 22 21 22 21 24 25 24 21 13 16 16 20 24 27 24 25 23 19 20 20 20 20 22 26 29 33 37 44 50 55 57 58 43 27 18 20 21 15 8 4 13
28 28 24 21 19 22 23 23 22 22 21 19 22 22 23 23 22 19 26 27 25 21 20 19 18 19 21 23 27 32 38 43 49 53 56 57 45 32 15 17 23 24 14 7 6
32 29 23 19 20 23 24 25 22 24 23 22 18 18 21 23 22 21 20 25 26 25 20 18 18 19 20 24 27 31 35 41 47 51 55 56 49 30 21 17 19 20 19 4 2
34 29 23 21 17 26 25 22 20 18 17 19 21 22 20 20 23 20 16 18 25 24 19 17 18 18 19 23 26 30 33 40 46 51 53 51 50 42 20 14 12 14 14 8 5
34 29 24 22 20 25 23 21 22 21 20 21 22 20 20 19 19 19 16 17 18 21 19 17 17 17 19 22 26 28 32 38 43 48 53 55 50 45 23 10 9 10 11 9 5
32 31 25 24 22 21 21 25 26 23 22 24 20 20 20 19 18 18 19 13 15 18 18 16 15 15 18 21 24 26 31 36 41 47 52 53 52 44 28 9 12 6 10 7 9
30 28 25 25 21 18 19 20 19 16 19 19 21 21 20 20 20 19 17 13 15 16 18 16 14 16 17 19 22 25 29 35 41 45 51 53 53 48 31 10 12 10 5 6 14
27 25 33 25 15 24 24 23 22 19 20 19 18 17 18 19 20 18 15 14 15 16 18 16 14 15 16 19 21 23 27 34 39 44 49 54 52 46 35 17 15 14 9 5 8
27 31 29 25 24 24 24 24 21 21 19 19 17 17 16 16 16 15 14 13 13 16 18 16 14 14 15 17 20 23 27 33 38 43 48 54 53 50 34 24 15 19 15 9 5
32 25 29 28 26 24 20 23 20 18 19 20 18 13 14 13 13 15 16 15 14 16 16 15 13 14 15 16 20 23 27 31 38 43 49 54 53 51 35 24 12 21 19 15 8
27 30 28 30 30 27 22 22 16 19 19 21 20 19 18 15 15 16 16 14 14 16 14 13 11 13 14 15 19 22 26 29 37 42 48 53 54 53 38 23 12 23 23 20 12
Wind_Direction
285 282 282 281 283 286 289 292 293 295 297 298 301 308 312 319 324 324 315 309 302 300 301 300 301 310 321 323 326 331 333 333 332 330 330 329 329 325 317 316 321 314 313 312 313
280 281 282 282 281 282 285 288 290 292 294 296 298 302 305 313 322 321 311 306 302 298 297 302 310 318 321 326 332 335 336 335 334 334 335 333 328 322 319 316 316 316 313 307 306
275 277 278 282 282 283 284 286 287 289 291 293 295 297 302 306 314 314 308 302 297 297 299 305 310 319 324 331 335 336 336 337 337 336 339 337 327 323 320 320 320 318 318 323 311
288 276 269 276 280 280 281 283 286 286 287 287 289 291 297 302 312 309 302 299 295 295 298 304 316 321 325 332 337 336 337 338 339 338 341 335 328 322 321 324 326 324 328 329 320
287 291 287 264 272 277 278 277 280 284 285 285 285 287 292 299 304 306 301 298 294 293 298 307 315 320 325 333 336 335 335 340 341 339 341 338 328 325 325 332 334 333 326 326 328
292 287 289 283 264 266 274 276 276 278 281 281 282 282 287 305 307 299 298 297 290 289 293 306 315 318 326 333 334 335 339 340 342 341 343 341 332 326 331 336 334 334 323 327 333
291 294 291 292 275 262 267 271 273 274 276 278 277 277 279 301 299 294 295 293 284 287 296 307 313 318 329 332 333 338 339 341 344 345 344 343 329 320 332 339 341 338 338 329 332
294 291 299 297 293 272 264 264 272 271 275 275 277 274 288 302 294 289 291 289 283 288 298 306 312 318 325 328 337 338 341 344 346 347 347 340 333 319 333 337 344 346 341 335 331
300 305 298 286 291 279 278 276 261 262 263 273 278 279 294 295 291 278 283 287 280 288 297 304 308 316 322 333 337 338 341 345 348 349 348 342 337 331 329 335 340 347 337 340 338
299 300 301 295 289 289 282 278 270 272 271 275 277 290 286 287 282 268 276 282 278 289 297 302 304 313 328 330 336 337 342 348 350 351 350 343 339 334 333 340 345 349 345 341 341
297 302 306 301 308 294 279 276 281 276 279 277 287 288 288 282 274 262 274 277 283 288 289 297 300 315 323 333 337 340 345 349 351 352 352 346 333 336 341 343 341 353 350 349 343
296 301 303 309 313 295 276 274 277 281 280 287 290 288 279 282 261 255 269 280 285 284 286 292 304 316 328 335 339 341 346 350 350 353 355 352 340 337 343 345 347 349 350 348 347
293 298 301 303 312 304 284 281 281 284 279 287 292 285 273 282 260 254 263 275 282 283 290 295 308 318 327 336 339 340 344 351 355 354 357 355 347 339 347 350 355 349 356 343 342
289 295 298 301 310 317 296 284 288 282 283 288 287 279 281 277 262 249 260 270 278 281 288 295 305 317 328 335 337 340 345 352 354 355 357 358 356 344 346 356 351 359 359 359 19
286 290 294 295 308 316 308 287 287 284 286 288 292 283 279 277 263 247 259 265 270 280 288 295 305 318 329 331 335 342 346 353 356 357 359 359 354 339 345 349 346 17 1 356 331
279 285 286 289 302 316 306 302 289 287 286 294 290 279 280 285 271 255 261 266 265 271 282 293 303 315 325 328 335 343 347 350 359 359 359 360 354 343 332 348 11 28 359 356 23
274 274 280 289 287 304 301 297 294 287 293 292 281 276 280 288 287 283 268 263 265 264 277 287 301 315 321 330 334 342 345 352 359 359 360 1 355 343 338 351 11 30 5 333 42
270 271 274 285 288 305 306 292 291 293 292 287 291 284 271 275 274 286 288 269 266 260 270 283 296 306 320 328 331 341 348 354 356 359 359 0 357 346 336 352 11 21 360 4 34
262 260 262 270 279 299 301 291 284 295 293 283 281 277 277 272 266 283 288 285 276 270 266 279 297 310 323 327 333 342 349 353 357 1 357 359 359 348 330 329 5 1 2 262 291
262 253 259 263 266 283 296 293 284 292 291 284 286 281 273 272 259 270 275 284 276 273 268 279 295 309 321 327 331 341 349 353 358 359 357 359 357 350 332 304 338 349 352 257 191
251 248 255 260 272 274 292 285 286 281 296 298 290 277 271 273 260 257 262 277 277 271 269 274 292 312 321 326 334 340 349 353 358 359 356 357 360 353 339 268 294 332 14 235 189
250 248 242 259 263 273 290 282 290 279 275 293 287 287 279 269 262 255 262 262 274 272 265 274 293 310 317 326 331 344 349 351 358 358 355 355 357 355 342 269 271 315 358 249 216
244 242 241 246 260 275 290 283 287 283 270 280 285 280 284 272 263 258 257 265 277 267 265 274 290 305 314 323 332 345 348 351 357 356 354 352 355 355 348 296 245 278 324 312 229
222 242 246 237 257 271 283 283 280 277 274 277 288 286 289 278 267 261 258 261 265 263 267 270 285 300 315 322 334 342 346 349 354 355 354 352 354 354 343 325 238 240 259 287 252
227 228 239 241 245 259 275 284 282 286 268 265 279 282 285 279 275 265 251 250 253 260 265 270 279 294 310 323 334 341 346 348 351 353 353 352 353 353 349 330 245 229 238 246 262
217 228 235 245 248 246 261 279 283 273 269 267 269 271 299 295 275 261 261 261 253 260 270 273 274 294 311 325 332 337 343 346 348 352 354 353 352 351 356 329 256 225 232 242 224
216 224 248 236 244 239 259 273 277 280 279 269 261 271 281 281 277 267 270 268 259 259 270 266 266 291 308 320 327 334 341 342 346 351 353 354 353 352 356 333 291 221 223 233 236